Regional Weather Roundup
Issued by NWS San Angelo, TX

Home | Current Version | Previous Version | Text Only | Print | Product List | Glossary On
Versions: 1 2 3 4 5 6 7 8 9 10 11 12 13 14 15 16 17 18 19 20 21 22 23 24 25 26 27 28 29 30 31 32 33 34 35 36 37 38 39 40 41 42 43 44 45 46 47 48 49 50
000
ASUS44 KSJT 180710
RWRSJT
WEST CENTRAL TEXAS REGIONAL WEATHER ROUNDUP
NATIONAL WEATHER SERVICE SAN ANGELO TX
100 AM CST SUN FEB 18 2018

NOTE: "FAIR" INDICATES FEW OR NO CLOUDS BELOW 12,000 FEET WITH NO
SIGNIFICANT WEATHER AND/OR OBSTRUCTIONS TO VISIBILITY.

TXZ049-054-064>066-071>073-076>078-098-099-113-114-127-128-139-140-
154-155-168>170-180800
...LOCATIONS ACROSS WEST CENTRAL TEXAS...

CITY           SKY/WX    TMP DP  RH WIND       PRES   REMARKS
SAN ANGELO     CLOUDY    53  39  59 NE7       30.12F
ABILENE        PTCLDY    48  40  73 SE6       30.14F
DYESS AFB      PTCLDY    44  41  89 CALM      30.14F
JUNCTION       PTCLDY    53  43  68 SE5       30.13S
SWEETWATER     CLOUDY    46  35  65 E5        30.16F
BROWNWOOD      NOT AVBL
COLEMAN        CLOUDY    49  38  67 NE3       30.15S
SONORA         CLOUDY    57  39  51 CALM      30.15F
OZONA          FAIR      54  37  54 NE3       30.14F
BRADY          NOT AVBL
$$

TEXAS PANHANDLE/OKLAHOMA PANHANDLE

CITY           SKY/WX    TMP DP  RH WIND       PRES   REMARKS
AMARILLO       CLOUDY    38  23  55 S17       30.09F WCI  28
BORGER         CLOUDY    44  22  41 S14G23    30.08F WCI  37
CANADIAN       CLOUDY    43  27  54 S10       30.11F WCI  37
DALHART        MOCLDY    36  23  59 S13       30.05F WCI  27
DUMAS          CLOUDY    36  19  51 S12       30.06F WCI  27
GUYMON         NOT AVBL
HEREFORD       CLOUDY    36  29  76 SW7       30.11F WCI  30
PAMPA          CLOUDY    40  26  56 S20       30.09F WCI  31
PERRYTON       CLOUDY    42  22  43 S15       30.06S WCI  35
$$

SOUTHERN PANHANDLE/SOUTH PLAINS/ROLLING PLAINS

CITY           SKY/WX    TMP DP  RH WIND       PRES   REMARKS
LUBBOCK        CLOUDY    37  28  70 SE7       30.13F WCI  32
SNYDER         CLOUDY    45  31  58 E6        30.16S
CHILDRESS      PTCLDY    39  28  64 S7        30.15F WCI  34
SEMINOLE       MOSUNNY   40  25  55 E3        30.16S
$$

PERMIAN BASIN

CITY           SKY/WX    TMP DP  RH WIND       PRES   REMARKS
MIDLAND        CLOUDY    50  29  44 E8        30.14F
ODESSA         CLOUDY    47  28  47 E5        30.14S
WINK           CLOUDY    48  32  53 NE5       30.11F
$$

FAR WEST/SOUTHWEST MOUNTAINS/TRANS PECOS

CITY           SKY/WX    TMP DP  RH WIND       PRES   REMARKS
ALPINE         CLOUDY    49  37  63 S3        30.20F
DRYDEN           N/A     60  41  49 N8        30.07S
EL PASO        CLOUDY    51  47  86 NE6       30.10F
FORT STOCKTON  PTCLDY    52  34  50 E3        30.12F
GUADALUPE PASS CLOUDY    50  42  74 W7        30.17F
MARFA          CLOUDY    49  38  65 NW8       30.19F
PECOS          PTSUNNY   53  32  44 E5        30.12F
$$

DALLAS/FORT WORTH METROPLEX

CITY           SKY/WX    TMP DP  RH WIND       PRES   REMARKS
DFW AIRPORT    MOCLDY    51  46  83 E5        30.16F
FTW MEACHAM    CLOUDY    52  46  80 E6        30.17F
DAL-EXECUTIVE  MOCLDY    49  46  90 E3        30.16F
GRAND PRAIRIE  CLOUDY    49  45  84 CALM      30.19F
ADDISON        CLOUDY    49  46  88 CALM      30.19F
MESQUITE       CLOUDY    47  45  93 CALM      30.19S
LANCASTER      MOSUNNY   46  44  93 E3        30.19F
$$

NORTH CENTRAL TEXAS

CITY           SKY/WX    TMP DP  RH WIND       PRES   REMARKS
SHRMAN/DENISON MOSUNNY   44  42  91 E6        30.20S
GAINESVILLE    CLOUDY    40  37  86 CALM      30.20R
BRIDGEPORT     PTSUNNY   41  40  96 CALM      30.18F
DENTON         CLOUDY    41  41 100 CALM      30.17F
WAXAHACHIE     CLOUDY    46  46 100 CALM      30.19F FOG
GRANBURY       CLOUDY    48  44  85 CALM      30.18F
$$

WESTERN NORTH TEXAS

CITY           SKY/WX    TMP DP  RH WIND       PRES   REMARKS
WICHITA FALLS  PTCLDY    42  28  57 E5        30.16F WCI  39
VERNON         CLOUDY    40  22  47 CALM      30.17F
BRECKENRIDGE   CLOUDY    49  40  70 CALM      30.14F
COMANCHE       CLOUDY    47  42  80 S7        30.16F
$$

CENTRAL AND SOUTH CENTRAL TEXAS

CITY           SKY/WX    TMP DP  RH WIND       PRES   REMARKS
AUSTIN/BERGSTM LGT RAIN  51  51 100 NE6       30.15S
WACO           PTCLDY    42  41  96 N5        30.17S WCI  39
HILLSBORO      PTSUNNY   47  47  99 NE3       30.16F
TEMPLE         PTCLDY    43  43 100 CALM      30.16F FOG
KILLEEN-GRAY   CLOUDY    48  47  94 CALM      30.14F
FORT HOOD      PTCLDY    47  46  99 CALM      30.12S
GEORGETOWN     CLOUDY    48  46  93 N5        30.17F FOG
LAGO VISTA     CLOUDY    50  48  93 NE8       30.15S
SAN MARCOS     CLOUDY    54  48  80 NE10      30.15S
NEW BRAUNFELS  CLOUDY    55  48  77 NE10      30.12F
RANDOLPH AFB   CLOUDY    56  48  72 NE8       30.12S
SAN ANTONIO    CLOUDY    57  47  69 NE7       30.12F
STINSON        CLOUDY    60  52  74 NE12      30.10F
PLEASANTON     NOT AVBL
LA GRANGE      CLOUDY    55  54  97 N5        30.12S FOG
GIDDINGS       CLOUDY    50  49  97 NE6       30.15S FOG
$$

EAST TEXAS

CITY           SKY/WX    TMP DP  RH WIND       PRES   REMARKS
PARIS          CLOUDY    43  42  97 E6        30.21S WCI  39
CLARKSVILLE    NOT AVBL
TYLER          MOCLDY    48  47  96 CALM      30.17F
LONGVIEW       CLOUDY    50  49  96 NE8       30.17F
PALESTINE      CLOUDY    50  48  94 CALM      30.18S
NACOGDOCHES    LGT RAIN  52  52 100 E6        30.17F
$$

TEXAS HILL COUNTRY AND EDWARDS PLATEAU

CITY           SKY/WX    TMP DP  RH WIND       PRES   REMARKS
LLANO          SUNNY     48  45  87 CALM      30.19R
HORSESHOE BAY  FAIR      47  45  93 CALM      30.15F
KERRVILLE      CLOUDY    52  46  79 CALM      30.14F
FREDERICKSBRG  CLOUDY    49  45  85 CALM      30.15F
ROCKSPRINGS    CLOUDY    59  57  94 E7        30.16S
HONDO          CLOUDY    61  49  64 E8        30.11F
UVALDE         PTSUNNY   59  50  72 NE9       30.11S
DEL RIO        CLOUDY    64  60  87 SE10G23   30.08R
$$

SOUTHEAST TEXAS

CITY           SKY/WX    TMP DP  RH WIND       PRES   REMARKS
COLLEGE STN    LGT RAIN  52  52 100 NE7       30.15F FOG
CALDWELL       CLOUDY    52  51  96 NE3       30.16S FOG
CROCKETT       CLOUDY    52  50  93 E3        30.19S FOG
BRENHAM        CLOUDY    54  54 100 N3        30.15F FOG
HUNTSVILLE     LGT RAIN  53  52  96 VRB5      30.15F FOG
CONROE         CLOUDY    56  55  97 VRB5      30.14S
HOUSTON BUSH   CLOUDY    60  55  83 NE8       30.13F
HOUSTON HOBBY  CLOUDY    62  58  86 N7        30.12S
PERLAND        CLOUDY    64  60  87 NE6       30.13S
WHARTON        CLOUDY    61  55  79 N6        30.12F
$$

THE UPPER TEXAS COAST

CITY           SKY/WX    TMP DP  RH WIND       PRES   REMARKS
ORANGE         CLOUDY    61  61 100 NE3       30.15S FOG
PORT ARTHUR    CLOUDY    61  60  97 NE6       30.12F FOG
GALVESTON      CLOUDY    66  63  90 N5        30.11F
ANGLETON       FOG       66  64  93 N3        30.10F VSB 1/2
BAY CITY       CLOUDY    65  62  89 CALM      30.10F
$$

TEXAS COASTAL BEND, RIO GRANDE PLAINS DEEP SOUTH TEXAS

CITY           SKY/WX    TMP DP  RH WIND       PRES   REMARKS
VICTORIA       CLOUDY    60  56  86 NE6       30.11F
BEEVILLE       CLOUDY    63  59  88 NE7       30.09F
ROCKPORT       CLOUDY    68  67  96 E3        30.08F FOG
PORT ARANSAS   NOT AVBL
PORT LAVACA    LGT RAIN  61  58  90 NE5       30.11S
CORPUS CHRISTI CLOUDY    70  70 100 SE12      30.07S
KINGSVILLE NAS CLOUDY    70  68  93 SE13      30.06S
COTULLA        CLOUDY    63  56  78 E9        30.06F
LAREDO         CLEAR     69  64  84 E9        30.03F
BROWNSVILLE    CLOUDY    72  71  97 SE12      30.06F
PORT ISABEL    CLOUDY    71  68  90 SE10      30.05F FOG
HEBBRONVILLE   SUNNY     66  64  90 S7        30.06S
MCALLEN        CLOUDY    73  69  87 SE12      30.05F
WESLACO        NOT AVBL
FALFURRIAS     CLOUDY    69  66  91 SE6       30.05S
EDINBURG       CLOUDY    69  66  91 SE3       30.06F
$$




USA.gov is the U.S. government's official web portal to all federal, state and local government web resources and services.